Terminal Aerodrome Forecast
Issued by NWS Memphis, TN

Home | Current Version | Previous Version | Text Only | Print | Product List | Glossary On
Versions: 1 2 3 4 5 6 7 8 9 10 11 12 13 14 15 16 17 18 19 20 21 22 23
000
FTUS44 KMEG 050328 AAB
TAFMKL
TAF AMD
KMKL 050328Z 0503/0524 22004KT P6SM VCTS SCT025CB OVC060
      TEMPO 0503/0506 5SM -SHRA BKN025 OVC035
     FM050600 VRB02KT P6SM SCT025 OVC150
     FM050700 VRB02KT 5SM BR BKN012 OVC020
      TEMPO 0509/0513 2SM BR OVC007
     FM051600 23006KT P6SM BKN020 OVC035
     FM051900 23006KT P6SM VCTS BKN040CB=

USA.gov is the U.S. government's official web portal to all federal, state and local government web resources and services.